When you browse on this site, cookies collect data to enhance your experience and personalize the content and advertising you see.
Visit our Privacy Policy to learn more. By continuing to use the site, you agree to this use of cookies and data.
  • In Czech Republic
  • List of Countries
  • For 7 days
  • Water Temperature
  • Weather Map
  • Weather Widgets
  • user-avatar
    Login

    Hourly Weather Asadabad

    Today, 23 September, Monday

    Time Temperature Precipitation Wind Pressure Humidity
    00:00 +22°C° 0 mm 0 mps 660 mmHg 74%
    01:00 +22°C° 0 mm 0 mps 660 mmHg 75%
    02:00 +21°C° 0 mm 0 mps 660 mmHg 76%
    03:00 +21°C° 0 mm 0 mps 660 mmHg 75%
    04:00 +21°C° 0 mm 0 mps 660 mmHg 74%
    05:00 +20°C° 0 mm 0 mps 660 mmHg 74%
    06:00 +22°C° 0 mm 0 mps 660 mmHg 68%
    07:00 +23°C° 0 mm 0 mps 661 mmHg 63%
    08:00 +24°C° 0 mm 0 mps 661 mmHg 58%
    09:00 +27°C° 0 mm 1 mps 661 mmHg 56%
    10:00 +28°C° 0 mm 1 mps 661 mmHg 53%
    11:00 +29°C° 0 mm 2 mps 661 mmHg 51%
    12:00 +30°C° 0 mm 2 mps 661 mmHg 48%
    13:00 +30°C° 0 mm 2 mps 661 mmHg 45%
    14:00 +31°C° 0 mm 2 mps 660 mmHg 42%
    15:00 +31°C° 0 mm 2 mps 660 mmHg 42%
    16:00 +31°C° 0 mm 2 mps 660 mmHg 43%
    17:00 +31°C° 0 mm 2 mps 659 mmHg 44%
    18:00 +29°C° 0 mm 2 mps 659 mmHg 51%
    19:00 +28°C° 0 mm 1 mps 659 mmHg 59%
    20:00 +24°C° 0 mm 0 mps 659 mmHg 66%
    21:00 +24°C° 0 mm 0 mps 659 mmHg 68%
    22:00 +23°C° 0 mm 0 mps 659 mmHg 69%
    23:00 +23°C° 0 mm 0 mps 659 mmHg 71%

    Tomorrow, 24 September, Tuesday

    Time Temperature Precipitation Wind Pressure Humidity
    00:00 +22°C° 0 mm 0 mps 659 mmHg 72%
    01:00 +22°C° 0 mm 0 mps 659 mmHg 72%
    02:00 +21°C° 0 mm 0 mps 659 mmHg 73%
    03:00 +21°C° 0 mm 0 mps 659 mmHg 74%
    04:00 +21°C° 0 mm 0 mps 659 mmHg 75%
    05:00 +20°C° 0 mm 0 mps 659 mmHg 76%
    06:00 +24°C° 0 mm 1 mps 659 mmHg 72%
    07:00 +25°C° 0 mm 1 mps 660 mmHg 68%
    08:00 +26°C° 0 mm 1 mps 661 mmHg 64%
    09:00 +27°C° 0 mm 1 mps 661 mmHg 59%
    10:00 +28°C° 0 mm 2 mps 661 mmHg 55%
    11:00 +29°C° 0 mm 2 mps 661 mmHg 51%
    12:00 +30°C° 0 mm 2 mps 661 mmHg 49%
    13:00 +30°C° 0 mm 2 mps 661 mmHg 47%
    14:00 +31°C° 0 mm 2 mps 660 mmHg 44%
    15:00 +31°C° 0 mm 2 mps 660 mmHg 45%
    16:00 +31°C° 0 mm 2 mps 660 mmHg 45%
    17:00 +31°C° 0 mm 2 mps 660 mmHg 45%
    18:00 +29°C° 0 mm 2 mps 660 mmHg 52%
    19:00 +28°C° 0 mm 1 mps 660 mmHg 58%
    20:00 +24°C° 0 mm 0 mps 660 mmHg 65%
    21:00 +24°C° 0 mm 0 mps 660 mmHg 67%
    22:00 +23°C° 0 mm 0 mps 660 mmHg 68%
    23:00 +23°C° 0 mm 0 mps 660 mmHg 70%

    Day after tomorrow, 25 September, Wednesday

    Time Temperature Precipitation Wind Pressure Humidity
    00:00 +23°C° 0 mm 0 mps 659 mmHg 70%
    01:00 +22°C° 0 mm 0 mps 659 mmHg 70%
    02:00 +22°C° 0 mm 0 mps 659 mmHg 70%
    03:00 +22°C° 0 mm 0 mps 659 mmHg 70%
    04:00 +21°C° 0 mm 0 mps 659 mmHg 70%
    05:00 +21°C° 0 mm 0 mps 659 mmHg 70%
    06:00 +24°C° 0 mm 1 mps 660 mmHg 67%
    07:00 +25°C° 0 mm 1 mps 661 mmHg 63%
    08:00 +26°C° 0 mm 1 mps 662 mmHg 59%
    09:00 +27°C° 0 mm 1 mps 662 mmHg 56%
    10:00 +28°C° 0 mm 2 mps 662 mmHg 54%
    11:00 +29°C° 0 mm 2 mps 662 mmHg 51%
    12:00 +30°C° 0 mm 2 mps 662 mmHg 49%
    13:00 +30°C° 0 mm 2 mps 662 mmHg 47%
    14:00 +31°C° 0 mm 2 mps 661 mmHg 45%
    15:00 +31°C° 0 mm 2 mps 661 mmHg 45%
    16:00 +31°C° 0 mm 2 mps 661 mmHg 46%
    17:00 +30°C° 0 mm 2 mps 661 mmHg 46%
    18:00 +29°C° 0 mm 1 mps 661 mmHg 52%
    19:00 +28°C° 0 mm 1 mps 661 mmHg 58%
    20:00 +24°C° 0 mm 0 mps 661 mmHg 64%
    21:00 +24°C° 0 mm 0 mps 661 mmHg 66%
    22:00 +24°C° 0 mm 0 mps 661 mmHg 67%
    23:00 +23°C° 0 mm 0 mps 661 mmHg 69%

    26 September, Thursday

    Time Temperature Precipitation Wind Pressure Humidity
    00:00 +23°C° 0 mm 0 mps 661 mmHg 69%
    01:00 +22°C° 0 mm 0 mps 661 mmHg 70%
    02:00 +22°C° 0 mm 0 mps 661 mmHg 71%
    03:00 +24°C° 0 mm 1 mps 661 mmHg 71%
    04:00 +24°C° 0 mm 1 mps 661 mmHg 71%
    05:00 +23°C° 0 mm 1 mps 661 mmHg 72%
    06:00 +25°C° 0 mm 1 mps 662 mmHg 68%
    07:00 +26°C° 0 mm 1 mps 662 mmHg 63%
    08:00 +25°C° 0 mm 0 mps 663 mmHg 59%
    09:00 +28°C° 0 mm 1 mps 663 mmHg 56%
    10:00 +29°C° 0 mm 1 mps 663 mmHg 52%
    11:00 +30°C° 0 mm 2 mps 663 mmHg 49%
    12:00 +30°C° 0 mm 2 mps 663 mmHg 47%
    13:00 +31°C° 0 mm 2 mps 662 mmHg 45%
    14:00 +31°C° 0 mm 2 mps 662 mmHg 43%
    15:00 +31°C° 0 mm 2 mps 661 mmHg 44%
    16:00 +31°C° 0 mm 2 mps 661 mmHg 45%
    17:00 +31°C° 0 mm 2 mps 661 mmHg 46%
    18:00 +29°C° 0 mm 2 mps 661 mmHg 52%
    19:00 +28°C° 0 mm 1 mps 661 mmHg 59%
    20:00 +24°C° 0 mm 0 mps 661 mmHg 66%
    21:00 +24°C° 0 mm 0 mps 661 mmHg 67%
    22:00 +24°C° 0 mm 0 mps 661 mmHg 69%
    23:00 +23°C° 0 mm 0 mps 661 mmHg 70%

    27 September, Friday

    Time Temperature Precipitation Wind Pressure Humidity
    00:00 +25°C° 0 mm 1 mps 661 mmHg 70%
    01:00 +24°C° 0 mm 1 mps 660 mmHg 71%
    02:00 +24°C° 0 mm 1 mps 660 mmHg 71%
    03:00 +24°C° 0 mm 1 mps 660 mmHg 70%
    04:00 +24°C° 0 mm 1 mps 660 mmHg 70%
    05:00 +23°C° 0 mm 1 mps 660 mmHg 70%
    06:00 +24°C° 0 mm 1 mps 661 mmHg 65%
    07:00 +23°C° 0 mm 0 mps 661 mmHg 60%
    08:00 +24°C° 0 mm 0 mps 662 mmHg 55%
    09:00 +27°C° 0 mm 1 mps 662 mmHg 54%
    10:00 +28°C° 0 mm 1 mps 662 mmHg 52%
    11:00 +29°C° 0 mm 2 mps 662 mmHg 51%
    12:00 +30°C° 0 mm 2 mps 661 mmHg 48%
    13:00 +31°C° 0 mm 2 mps 661 mmHg 45%
    14:00 +31°C° 0 mm 3 mps 660 mmHg 42%
    15:00 +31°C° 0 mm 3 mps 660 mmHg 44%
    16:00 +31°C° 0 mm 3 mps 660 mmHg 46%
    17:00 +30°C° 0 mm 3 mps 659 mmHg 48%
    18:00 +29°C° 0 mm 2 mps 659 mmHg 55%
    19:00 +28°C° 0 mm 1 mps 659 mmHg 62%
    20:00 +24°C° 0 mm 0 mps 659 mmHg 69%
    21:00 +26°C° 0.2 mm 1 mps 659 mmHg 69%
    22:00 +25°C° 0.2 mm 1 mps 659 mmHg 70%
    23:00 +25°C° 0.2 mm 1 mps 659 mmHg 70%

    28 September, Saturday

    Time Temperature Precipitation Wind Pressure Humidity
    00:00 +25°C° 0.2 mm 1 mps 659 mmHg 67%
    01:00 +24°C° 0.2 mm 1 mps 659 mmHg 65%
    02:00 +24°C° 0.2 mm 1 mps 658 mmHg 62%
    03:00 +23°C° 0 mm 1 mps 658 mmHg 60%
    04:00 +23°C° 0 mm 1 mps 658 mmHg 58%
    05:00 +23°C° 0 mm 1 mps 658 mmHg 55%
    06:00 +24°C° 0.1 mm 1 mps 658 mmHg 50%
    07:00 +25°C° 0.1 mm 1 mps 658 mmHg 45%
    08:00 +26°C° 0.1 mm 1 mps 659 mmHg 40%
    09:00 +27°C° 0 mm 1 mps 659 mmHg 41%
    10:00 +28°C° 0 mm 1 mps 659 mmHg 43%
    11:00 +29°C° 0 mm 2 mps 659 mmHg 44%
    12:00 +30°C° 0 mm 2 mps 658 mmHg 42%
    13:00 +30°C° 0 mm 2 mps 658 mmHg 40%
    14:00 +31°C° 0 mm 3 mps 658 mmHg 38%
    15:00 +31°C° 0 mm 3 mps 657 mmHg 41%
    16:00 +30°C° 0 mm 3 mps 657 mmHg 44%
    17:00 +30°C° 0 mm 3 mps 657 mmHg 47%
    18:00 +28°C° 0.4 mm 2 mps 657 mmHg 56%
    19:00 +27°C° 0.4 mm 1 mps 657 mmHg 64%
    20:00 +23°C° 0.4 mm 0 mps 657 mmHg 73%
    21:00 +23°C° 0.3 mm 0 mps 657 mmHg 74%
    22:00 +22°C° 0.3 mm 0 mps 657 mmHg 75%
    23:00 +22°C° 0.3 mm 0 mps 658 mmHg 75%
    Show more